www.pogodaiklimat.ru

Погода и климат >> Архив погоды >> Китай >> Ганьсу >> Бэй-дао


ПОГОДА в Бэй-дао

  • Прогноз погоды в Бэй-дао
  • Монитор погоды в Бэй-дао

АРХИВ ПОГОДЫ в Бэй-дао

Время (UTC), дата Ветер
(напр.,м/с)
 
Видим.   Явления Облачность Т
(С)
Тd
(С)
f
(%)
Тe
(С)
Тes
(С)
Комфортность P
(гПа)
Po
(гПа)
Тmin
(С)
Tmax
(С)
R
(мм)
R24
(мм)
S
(см)
00 13.09 З 2 14 км слаб. дождь 10/10
[]
+12.3 +11.4 94 +11 +11 1024.2 899.3 17
03 13.09 штиль 0 22 км слаб. дождь 10/10
[]
+13.6 +11.1 85 +13 +13 1024.9 900.5
06 13.09 З 1 26 км слаб. дождь 10/10
[]
+14.5 +12.5 88 +15 +15 1023.7 899.8 +12.2 6
09 13.09 З 2 18 км слаб. дождь 10/10
[]
+12.8 +11.0 89 +12 +12 1024.0 899.4
12 13.09 З 2 24 км слаб. дождь 10/10
[]
+12.3 +10.5 89 +11 +11 1024.7 899.8 6
18 13.09 В 1 30 км слаб. дождь ?/? +12.0 +10.7 92 +12 +12 1022.6 897.8 +14.7 0.1
21 13.09 Ю 1 30 км слаб. дождь н/о +11.7 +10.4 92 +11 +11 1021.2 896.4
00 14.09 З 1 12 км слаб. дождь 10/10
[]
+11.7 +10.9 95 +11 +11 1022.2 897.3 5
03 14.09 В 2 12 км дождь 10/10
[]
+12.0 +10.7 92 +11 +11 1022.1 897.4
06 14.09 ЮВ 2 14 км слаб. дождь 10/10
[]
+13.1 +11.2 88 +12 +12 1020.1 896.1 +11.6 14
09 14.09 В 1 30 км слаб. дождь 10/10
[]
+14.5 +10.5 77 +15 +15 1018.9 895.6
12 14.09 В 1 30 км {дождь} 10/10
[]
+13.8 +10.6 81 +14 +14 1019.7 896.0 0.2
18 14.09 В 1 30 км ?/? +12.6 +11.0 90 +13 +13 1019.9 895.7 +15.0
21 14.09 штиль 0 30 км н/о +12.4 +11.0 91 +12 +12 1019.0 894.8
00 15.09 В 1 30 км 10/10
[]
+12.9 +11.1 89 +13 +13 1020.2 896.1
03 15.09 СВ 2 30 км 9/9
[]
+15.8 +11.0 73 +16 +17 1020.3 897.3
06 15.09 В 3 30 км 9/9 1500 м
[]
+18.0 +12.7 71 +18 +19 1017.6 895.8 +12.1
09 15.09 В 3 30 км {дождь} 10/10 1500 м
[]
+17.2 +13.3 78 +17 +17 1017.7 895.6
12 15.09 Ю 1 27 км {дождь} 10/10 1500 м
[]
+15.9 +13.6 86 +17 +17 1018.5 895.8 0.2
18 15.09 С 1 26 км ?/? +13.4 +12.8 96 +13 +13 1017.9 894.2 +18.3
21 15.09 ЮВ 1 30 км н/о +13.7 +12.3 91 +14 +14 1017.7 894.2
00 16.09 ЮВ 3 30 км 9/9 1500 м
[]
+14.3 +11.6 84 +13 +13 1017.9 894.6
03 16.09 С 2 30 км 9/9 1500 м
[]
+17.6 +10.9 65 +18 +19 1017.5 895.6
06 16.09 Ю 3 30 км 9/9 1500 м
[]
+20.3 +12.0 59 +23 +24 комфорт 1014.3 893.8 +13.3
09 16.09 В 5 20 км 10/10 1500 м
[]
+19.4 +8.7 50 +20 +20 1013.0 892.3
12 16.09 В 2 30 км 10/10 1500 м
[]
+17.4 +10.0 62 +18 +18 1014.8 893.1
18 16.09 В 3 30 км слаб. дождь ?/? +16.2 +10.9 71 +16 +16 1015.3 893.1 +21.7
21 16.09 З 3 11 км дождь н/о +13.8 +12.5 92 +13 +13 1017.6 894.1
00 17.09 З 2 15 км дождь 10/10 1000 м
[]
+13.7 +12.4 92 +13 +13 1020.5 896.6 15
03 17.09 З 4 30 км {дождь} 10/10
[]
+16.1 +12.3 78 +15 +15 1021.8 898.8
06 17.09 З 3 30 км {дождь} 10/10
[]
+18.2 +12.2 68 +19 +19 1020.9 898.8 +13.3 0.2
09 17.09 В 3 30 км 9/9
[]
+16.8 +10.6 67 +17 +17 1022.3 899.5
12 17.09 ЮВ 2 30 км 6/6
[]
+14.7 +9.9 73 +14 +14 1024.3 900.4
18 17.09 З 1 28 км ?/? +12.4 +10.6 89 +12 +12 1024.4 899.5 +18.8
21 17.09 СВ 1 24 км н/о +12.0 +10.7 92 +12 +12 1024.1 899.1
00 18.09 Ю 1 22 км слаб. дождь 10/10
[]
+12.5 +11.1 91 +12 +12 1025.7 900.7 0.0
03 18.09 В 2 10 км слаб. дождь 10/10
[]
+13.5 +12.1 91 +13 +13 1026.4 901.7
06 18.09 В 1 28 км {дождь} 10/10
[]
+15.2 +11.0 76 +16 +16 1023.2 899.6 +11.8 5
09 18.09 В 3 30 км 10/10
[]
+15.1 +9.5 69 +14 +14 1021.9 898.4
12 18.09 ЮВ 1 30 км 10/10
[]
+14.3 +9.5 73 +15 +15 1022.2 898.4
18 18.09 З 1 7000 м слаб. дождь ?/? +12.3 +11.7 96 +12 +12 1022.7 898.0 +15.6 2
21 18.09 ЮЗ 1 7000 м слаб. дождь н/о +12.3 +11.8 97 +12 +12 1022.4 897.7
00 19.09 З 1 14 км 10/10
[]
+12.8 +12.0 95 +13 +13 1024.2 899.5 10
03 19.09 С 1 26 км {дождь} 10/10
[]
+15.1 +11.5 79 +16 +16 1024.4 900.6
06 19.09 В 2 30 км {дождь} 10/10
[]
+17.9 +11.7 67 +18 +18 1021.8 899.3 +12.3 0.0
09 19.09 В 1 30 км 10/10
[]
+18.4 +13.0 71 +20 +20 1020.5 898.5
12 19.09 штиль 0 30 км 10/10
[]
+16.4 +14.4 88 +16 +16 1022.4 899.4
18 19.09 ЮЗ 1 16 км ?/? +14.1 +13.5 96 +14 +14 1023.2 899.2 +18.6 0.2
21 19.09 З 1 21 км н/о +13.9 +12.9 94 +14 +14 1023.0 898.9

 

Местоположение метеостанции Бэй-дао (Ганьсу, Китай): широта 34.57 долгота 105.86 высота над уровнем моря 1086 м.

В архиве по умолчанию представлена погода в Бэй-дао за последнюю неделю. Архивные данные за месяц целиком и за предыдущие месяцы, начиная с января 2011 года, Вы можете получить, выбрав интересующий диапазон дат из раскрывающегося списка и нажав кнопку "Ввод!".


*Определитесь, кто Вы:
робот инопланетянин человек

Внимание! Время в таблицах - всемирное. Для получения местного времени необходимо прибавить поправку, которая равна 8 ч.

Смотрите также архив погоды в соседних городах и на ближайших метеорологических станциях:

Погода в Хуаяйлинге (Цинхай, Китай) (119 км)
Погода в Пинляне (Ганьсу, Китай) (131 км)
Погода в Фэнсяне (Шэньси, Китай) (139 км)
Погода в Уду (Ганьсу, Китай) (157 км)
Погода в Ханьчжуне (Шэньси, Китай) (199 км)
Погода в Цинъяне (Ганьсу, Китай) (206 км)
Погода в Юйчжуне (Цинхай, Китай) (212 км)
Погода в Хэцзо (Ганьсу, Китай) (275 км)
Погода в Цзинхэ (Синьцзян-Уйгурский автономный район, Китай) (285 км)
Погода в Жоэргае (Сычуань, Китай) (289 км)

Пояснения к столбцам:

Ветер - указаны скорость ветра в м/с - средняя за 10 мин, порывы в срок и между сроками (в фигурных скобках) и направление, откуда дует ветер: С - северный, СВ - северо-восточный, В - восточный, ЮВ - юго-восточный, Ю - южный, ЮЗ - юго-западный, З - западный, СЗ - северо-западный.
Видимость - горизонтальная дальность видимости в метрах или километрах. При видимости от 1 до 10 км при отсутствии осадков обычно наблюдается дымка, при ухудшении видимости до 1 км и менее - туман. В сухую погоду видимость может ухудшаться дымом, пылью или мглою.
Явления - указаны атмосферные явления, наблюдавшиеся в срок или в последний час перед сроком; фигурными скобками обозначены явления, наблюдавшиеся между сроками (за 1-3 часа до срока); квадратными скобками обозначены град или гололедные отложения с указанием их диаметра в мм.
Облачность - указаны через наклонную черту общая и нижняя облачность в баллах и высота нижней границы облаков в метрах; квадратными скобками обозначены формы облаков: Ci - перистые, Cs - перисто-слоистые, Cc - перисто-кучевые, Ac - высококучевые, As - высокослоистые, Sc - слоисто-кучевые, Ns - слоисто-дождевые, Cu - кучевые, Cb - кучево-дождевые. Подробнее классификацию облаков см. в Атласе облаков (PDF).
T - Температура воздуха - температура, измеренная на высоте 2 м над землей.
Td - Температура точки росы - температура, при понижении до которой содержащийся в воздухе водяной пар достигнет насыщения.
f - Относительная влажность воздуха - влажноcть воздуха, измеренная на высоте 2 м над землей.
Te - Эффективная температура - температура, которую ощущает одетый по сезону человек в тени. Характеристика душности погоды. При расчете учитывается влияние влажности воздуха и скорости ветра на теплоощущения человека.
Tes - Эффективная температура на солнце - температура, которую ощущает человек, с поправкой на солнечный нагрев. Характеристика знойности погоды. Зависит от высоты солнца над горизонтом, облачности и скорости ветра. Ночью, в пасмурную погоду, а также при ветре 12 м/с и более поправка равна нулю.
P - Атмосферное давление - приведенное к уровню моря атмосферное давление.
Po - Атмосферное давление - измеренное на уровне метеостанции атмосферное давление.
Tmin - Минимальная температура - минимум температуры воздуха на высоте 2 м над землей.
Tmax - Максимальная температура - максимум температуры воздуха на высоте 2 м над землей.
R - Количество осадков - Количество выпавших осадков за период времени, мм. При наведении курсора мыши на число - период времени, за который выпало указанное количество осадков.
R24 - Количество осадков - Количество выпавших осадков за 24 часа, мм.
S - Снежный покров - Высота снежного покрова, см. При наведении курсора мыши на число - состояние снежного покрова и степень покрытия местности в баллах.